2024-174B

Last updated on Fri Oct 25 2024 00:02:04 GMT+0000 (Coordinated Universal Time)

1 61239U 24174B 24298.45036951 .00013203 00000+0 66710-3 0 9998 2 61239 97.4556 303.2448 0015872 175.6415 184.4959 15.17088722 4460
UTC large
Height (km)
Speed (km/s)
/
Latitude / Longitude
Inclination (degrees)
Orbital Period (minutes)
Azimuth
Elevation
Range (km)
Doppler Factor

Next 0 passes for location: London (51.5072 / 0.1276)

Sorry there are no passes over London.